Weather History for Nimes, France

Change the Weather History Date:

Monday, August 11, 2014

  Actual Average Record
Temperature  
Mean Temperature 80 °F -  
Max Temperature 90 °F 80 °F 100 °F (2003)
Min Temperature 69 °F 61 °F 59 °F (2011)
Cooling Degree Days 14    
Growing Degree Days 30 (Base 50)    
Moisture  
Dew Point 62 °F    
Average Humidity 57    
Maximum Humidity 83    
Minimum Humidity 25    
Precipitation  
Precipitation 0.03 in - - ()
Sea Level Pressure  
Sea Level Pressure 29.96 in    
Wind  
Wind Speed 4 mph ()    
Max Wind Speed 13 mph    
Max Gust Speed -    
Visibility 6.5 miles    
Events      
Averages and records for this station are not official NWS values.
T = Trace of Precipitation, MM = Missing Value Source: Averaged Metar Reports

Daily Weather History Graph

Daily Weather History Graph

Search for Another Location

Airport:

Trip Planner

Search our weather history database for the weather conditions in past years. The results will help you decide how hot, cold, wet, or windy it might be!

Date:

Astronomy

Aug. 11, 2014 Rise Set
Actual Time 6:41 AM CEST 8:52 PM CEST
Civil Twilight 6:10 AM CEST 9:23 PM CEST
Nautical Twilight 5:31 AM CEST 10:02 PM CEST
Astronomical Twilight 4:48 AM CEST 10:45 PM CEST
Moon 9:05 PM CEST (8/11) 7:31 AM CEST (8/11)
Length of Visible Light 15h 13m
Length of Day
14h 10m
Full, 99% of the Moon is Illuminated
Aug 11
Full
Aug 17
Last Quarter
Aug 25
New
Sep 2
First Quarter
Sep 9
Full

Hourly Weather History & Observations

Time (CEST) Temp. Heat Index Dew Point Humidity Pressure Visibility Wind Dir Wind Speed Gust Speed Precip Events Conditions
12:00 AM 74 °F - 65 °F 67% 29.95 in 7 mi Calm Calm - -   Clear
12:00 AM 73.4 °F - 66.2 °F 78% 29.95 in 6.2 mi Calm Calm - N/A   Overcast
12:30 AM 75.2 °F - 66.2 °F 73% 29.95 in 6.2 mi Variable 2.3 mph - N/A   Overcast
1:00 AM 74 °F - 66 °F 69% 29.96 in 7 mi North 2.3 mph - -   Clear
1:00 AM 75.2 °F - 66.2 °F 73% 29.95 in 6.2 mi North 2.3 mph - N/A   Overcast
1:30 AM 73.4 °F - 68.0 °F 83% 29.95 in 6.2 mi Variable 3.5 mph - N/A   Mostly Cloudy
2:00 AM 74 °F - 66 °F 71% 29.95 in 4 mi ESE 3.5 mph - -   Clear
2:00 AM 73.4 °F - 66.2 °F 78% 29.95 in 4.3 mi Variable 3.5 mph - N/A   Unknown
2:30 AM 73.4 °F - 68.0 °F 83% 29.92 in 3.1 mi ESE 6.9 mph - N/A   Mist
3:00 AM 73 °F - 67 °F 77% 29.94 in 5 mi ENE 2.3 mph - -   Clear
3:00 AM 73.4 °F - 68.0 °F 83% 29.95 in 5.0 mi Variable 2.3 mph - N/A   Unknown
3:30 AM 73.4 °F - 66.2 °F 78% 29.95 in 5.0 mi Calm Calm - N/A   Unknown
4:00 AM 72 °F - 66 °F 76% 29.94 in 4 mi Calm Calm - -   Clear
4:00 AM 73.4 °F - 66.2 °F 78% 29.95 in 4.3 mi Calm Calm - N/A   Unknown
4:30 AM 73.4 °F - 66.2 °F 78% 29.95 in - WNW 4.6 mph - N/A   Mist
5:00 AM 72 °F - 66 °F 76% 29.94 in 4 mi WNW 3.5 mph - -   Clear
5:00 AM 71.6 °F - 66.2 °F 83% 29.95 in 3.7 mi WNW 3.5 mph - N/A   Unknown
5:30 AM 71.6 °F - 66.2 °F 83% 29.95 in - Variable 1.2 mph - N/A   Mist
6:00 AM 72 °F - 65 °F 73% 29.94 in 4 mi NNW 3.5 mph - -   Clear
6:00 AM 71.6 °F - 64.4 °F 78% 29.95 in 3.7 mi Variable 3.5 mph - N/A   Unknown
6:30 AM 71.6 °F - 64.4 °F 78% 29.95 in 3.7 mi Variable 1.2 mph - N/A   Unknown
7:00 AM 71 °F - 64 °F 74% 29.94 in 3 mi ENE 2.3 mph - -   Mist
7:00 AM 71.6 °F - 64.4 °F 78% 29.95 in - ENE 2.3 mph - N/A   Mist
7:30 AM 71.6 °F - 64.4 °F 78% 29.95 in 4.3 mi Calm Calm - N/A   Unknown
8:00 AM 73.4 °F - 66.2 °F 78% 29.95 in 6.2 mi NNW 2.3 mph - N/A   Unknown
8:30 AM 75.2 °F - 66.2 °F 73% 29.95 in 6.2 mi NNW 4.6 mph - N/A   Unknown
9:00 AM 76 °F - 67 °F 66% 29.95 in 8 mi North 3.5 mph - -   Clear
9:00 AM 75.2 °F - 66.2 °F 73% 29.95 in 6.2 mi North 3.5 mph - N/A   Unknown
9:30 AM 77.0 °F - 66.2 °F 69% 29.95 in 6.2 mi Variable 3.5 mph - N/A   Unknown
10:00 AM 80 °F - 67 °F 56% 29.95 in 11 mi North 4.6 mph - -   Clear
10:00 AM 80.6 °F 82.7 °F 66.2 °F 61% 29.95 in 6.2 mi North 4.6 mph - N/A   Unknown
10:30 AM 78.8 °F - 66.2 °F 65% 29.95 in 6.2 mi NNW 3.5 mph - N/A   Unknown
11:00 AM 81 °F - 65 °F 49% 29.95 in 11 mi NNW 5.8 mph - -   Clear
11:00 AM 80.6 °F 82.3 °F 64.4 °F 58% 29.95 in 6.2 mi NNW 5.8 mph - N/A   Unknown
11:30 AM 82.4 °F 83.9 °F 64.4 °F 54% 29.98 in 6.2 mi NNW 4.6 mph - N/A   Unknown
12:00 PM 84 °F - 62 °F 38% 29.96 in 12 mi North 6.9 mph - -   Clear
12:00 PM 84.2 °F 85.0 °F 62.6 °F 48% 29.98 in 6.2 mi North 6.9 mph - N/A   Unknown
12:30 PM 86.0 °F 86.1 °F 60.8 °F 43% 29.98 in 6.2 mi North 5.8 mph - N/A   Unknown
1:00 PM 87 °F - 59 °F 28% 29.96 in 12 mi NNW 8.1 mph - -   Clear
1:00 PM 87.8 °F 87.1 °F 59.0 °F 38% 29.98 in 6.2 mi NNW 8.1 mph - N/A   Partly Cloudy
1:30 PM 87.8 °F 87.1 °F 59.0 °F 38% 29.98 in 6.2 mi NW 6.9 mph - N/A   Partly Cloudy
2:00 PM 88 °F - 59 °F 28% 29.96 in 11 mi NNW 6.9 mph - -   Clear
2:00 PM 87.8 °F 87.1 °F 59.0 °F 38% 29.98 in 6.2 mi NNW 6.9 mph - N/A   Mostly Cloudy
2:30 PM 87.8 °F 87.6 °F 60.8 °F 40% 29.98 in 6.2 mi NNW 9.2 mph - N/A   Unknown
3:00 PM 88 °F - 59 °F 28% 29.95 in 12 mi NNW 9.2 mph - -   Clear
3:00 PM 87.8 °F 87.1 °F 59.0 °F 38% 29.95 in 6.2 mi NNW 9.2 mph - N/A   Unknown
3:30 PM 89.6 °F 88.9 °F 59.0 °F 36% 29.95 in 6.2 mi North 9.2 mph - N/A   Unknown
4:00 PM 89 °F - 58 °F 25% 29.94 in 12 mi NNW 9.2 mph - -   Clear
4:00 PM 89.6 °F 88.9 °F 59.0 °F 36% 29.95 in 6.2 mi NNW 9.2 mph - N/A   Unknown
4:30 PM 87.8 °F 86.5 °F 57.2 °F 35% 29.95 in 6.2 mi North 10.4 mph - N/A   Unknown
5:00 PM 89 °F - 58 °F 25% 29.94 in 34 mi North 12.7 mph - -   Clear
5:00 PM 89.6 °F 88.1 °F 57.2 °F 33% 29.95 in 6.2 mi North 12.7 mph - N/A   Unknown
5:30 PM 87.8 °F 87.1 °F 59.0 °F 38% 29.95 in 6.2 mi North 11.5 mph - N/A   Unknown
6:00 PM 86 °F - 58 °F 29% 29.93 in 12 mi NNW 10.4 mph - -   Clear
6:00 PM 86.0 °F 85.4 °F 59.0 °F 40% 29.95 in 6.2 mi NNW 10.4 mph - N/A   Unknown
6:30 PM 86.0 °F 86.1 °F 60.8 °F 43% 29.95 in 6.2 mi North 11.5 mph - N/A   Unknown
7:00 PM 83 °F - 61 °F 37% 29.93 in 12 mi NNE 11.5 mph - -   Clear
7:00 PM 84.2 °F 84.4 °F 60.8 °F 45% 29.95 in 6.2 mi NNE 11.5 mph - N/A   Unknown
7:30 PM 82.4 °F 82.5 °F 59.0 °F 45% 29.95 in 6.2 mi North 9.2 mph - N/A   Unknown
8:00 PM 81 °F - 60 °F 38% 29.94 in 37 mi North 8.1 mph - -   Clear
8:00 PM 80.6 °F 81.1 °F 59.0 °F 48% 29.95 in 6.2 mi North 8.1 mph - N/A   Unknown
8:30 PM 77.0 °F - 59.0 °F 54% 29.95 in 6.2 mi NNE 8.1 mph - N/A   Unknown
9:00 PM 75 °F - 57 °F 43% 29.96 in 37 mi NNE 11.5 mph - -   Clear
9:00 PM 75.2 °F - 57.2 °F 53% 29.98 in 6.2 mi NNE 11.5 mph - N/A   Unknown
9:30 PM 73.4 °F - 55.4 °F 53% 29.98 in 6.2 mi NNE 8.1 mph - N/A   Unknown
10:00 PM 72 °F - 55 °F 45% 29.99 in 37 mi North 5.8 mph - -   Clear
10:00 PM 71.6 °F - 55.4 °F 57% 29.98 in 6.2 mi North 5.8 mph - N/A   Unknown
10:30 PM 71.6 °F - 55.4 °F 57% 29.98 in 6.2 mi NNW 6.9 mph - N/A   Unknown
11:00 PM 70 °F - 54 °F 47% 30.00 in 37 mi North 10.4 mph - -   Clear
11:00 PM 69.8 °F - 53.6 °F 56% 30.01 in 6.2 mi North 10.4 mph - N/A   Unknown
11:30 PM 69.8 °F - 53.6 °F 56% 30.01 in 6.2 mi North 9.2 mph - N/A   Unknown